Overview Statistics Trail Chart Weather Telemetry Raw packets
 

This is the latest recevied weather packets stored in our database for station/object EA2RCU-15. If no packets are shown the sender has not sent any weather packets the latest 10 day(s).

<< 81 82 83 84 85 86 87 >>
Time Temp. Humidity Pressure Rain* Wind** Luminosity Snow
1788029704 24.44° C 38% 1004 hPa 0 mm - - -
1788029404 24.44° C 37% 1004 hPa 0 mm - - -
1788029103 24.44° C 37% 1004 hPa 0 mm - - -
1788028804 24.44° C 36% 1003 hPa 0 mm - - -
1788028504 25° C 36% 1003 hPa 0 mm - - -
1788028204 25° C 35% 1003 hPa 0 mm - - -
1788027903 25° C 34% 1003 hPa 0 mm - - -
1788027604 25.56° C 34% 1003 hPa 0 mm - - -
1788027304 25.56° C 34% 1003 hPa 0 mm - - -
1788027004 26.11° C 32% 1003 hPa 0 mm - - -
1788026704 26.11° C 32% 1003 hPa 0 mm - - -
1788026404 26.67° C 32% 1003 hPa 0 mm - - -
1788026115 26.67° C 30% 1003 hPa 0 mm - - -
1788025804 28.33° C 24% 1003 hPa 0 mm - - -
1788025504 31.11° C 20% 1003 hPa 0 mm - - -
1788025204 35° C 17% 1003 hPa 0 mm - - -
1788024904 36.11° C 16% 1003 hPa 0 mm - - -
1788024604 36.11° C 17% 1003 hPa 0 mm - - -
1788024304 33.89° C 18% 1003 hPa 0 mm - - -
1788024004 34.44° C 17% 1003 hPa 0 mm - - -
1788023704 34.44° C 16% 1003 hPa 0 mm - - -
1788023404 35.56° C 16% 1003 hPa 0 mm - - -
1788023104 38.89° C 12% 1003 hPa 0 mm - - -
1788022804 38.89° C 12% 1003 hPa 0 mm - - -
1788022504 37.22° C 13% 1003 hPa 0 mm - - -

* Rain latest hour (hover to see other rain measurements)
** Current wind speed in m/s (hover to see current wind gust speed)